EW9927 Weather Reports


Display with metric or nautical units.
time (UTC)temp
F
wind
direction
speed
MPH
gust
MPH
rain 1hr
in
rain 24hr
in
rain mn
in
humidity
%
barometer
mb
20260510031918 78 204 1.0 3.0 0.00 0.07 0.07 82 1010.2
20260510031415 78 117 0.0 1.0 0.00 0.07 0.07 80 1010.2
20260510030910 78 127 0.0 2.0 0.00 0.07 0.07 78 1010.2
20260510030401 78 130 0.0 2.0 0.00 0.07 0.07 78 1009.8
20260510025854 78 120 0.0 1.0 0.00 0.07 0.07 78 1009.8
20260510025616 77 119 0.0 0.0 0.00 0.07 0.07 79 1009.5
20260510024846 77 95 0.0 1.0 0.00 0.07 0.07 79 1009.5
20260510024339 76 112 0.0 1.0 0.00 0.07 0.07 79 1009.1
20260510023834 75 119 0.0 0.0 0.00 0.07 0.07 82 1009.1
20260510023552 75 120 0.0 0.0 0.00 0.07 0.07 84 1009.1
20260510022823 75 115 0.0 0.0 0.00 0.07 0.07 83 1009.1
20260510022317 75 113 0.0 1.0 0.00 0.07 0.07 84 1008.8
20260510021809 75 110 0.0 1.0 0.00 0.07 0.07 86 1008.5
20260510021521 75 117 0.0 0.0 0.00 0.07 0.07 86 1008.1
20260510021407 75 118 0.0 0.0 0.00 0.07 0.07 86 1008.5
20260510021357 75 118 0.0 0.0 0.00 0.07 0.07 86 1008.5
20260510015504 75 127 0.0 0.0 0.00 0.07 0.07 87 1008.1
20260510014732 75 123 0.0 0.0 0.00 0.07 0.07 86 1007.8
20260510014442 75 118 0.0 0.0 0.00 0.07 0.07 86 1007.8
20260510013716 75 136 0.0 0.0 0.00 0.07 0.07 85 1007.5
20260510013215 75 136 0.0 0.0 0.00 0.07 0.07 84 1007.5
20260510012709 75 138 0.0 0.0 0.00 0.07 0.07 84 1007.5
20260510012201 75 118 0.0 0.0 0.00 0.07 0.07 85 1007.5
20260510011912 75 111 0.0 1.0 0.00 0.07 0.07 85 1007.5
20260510011152 75 127 0.0 1.0 0.01 0.07 0.07 85 1007.5
20260510010642 74 116 0.0 0.0 0.02 0.07 0.07 85 1007.1
20260510010135 75 118 0.0 0.0 0.02 0.07 0.07 85 1007.1
20260510005629 74 113 0.0 0.0 0.02 0.07 0.07 86 1006.8
20260510005124 75 117 0.0 0.0 0.02 0.07 0.07 85 1006.8
20260510004618 75 119 0.0 0.0 0.02 0.07 0.07 84 1006.8
20260510004113 75 124 0.0 0.0 0.03 0.07 0.07 83 1006.8
20260510003606 75 126 0.0 1.0 0.05 0.07 0.07 83 1006.8
20260510003103 75 161 0.0 1.0 0.05 0.07 0.07 82 1006.8
20260510002556 75 142 0.0 4.0 0.05 0.07 0.07 83 1006.8
20260510002047 76 133 0.0 4.0 0.05 0.07 0.07 80 1007.1
20260510001538 77 248 2.0 3.0 0.05 0.07 0.07 80 1007.1
20260510001038 78 130 0.0 3.0 0.04 0.06 0.06 79 1007.1
20260510000530 79 119 0.0 0.0 0.03 0.05 0.05 84 1006.8
20260510000022 80 111 0.0 0.0 0.03 0.05 0.05 81 1006.8
20260509235514 80 151 0.0 1.0 0.03 0.05 0.05 81 1006.8
20260509235015 80 118 0.0 6.0 0.03 0.05 0.05 79 1006.4
20260509234507 83 149 2.0 6.0 0.03 0.05 0.05 78 1006.4
20260509233959 86 136 0.0 0.0 0.02 0.04 0.04 74 1006.4
20260509233452 89 137 0.0 1.0 0.00 0.02 0.02 67 1006.4
20260509232951 90 139 0.0 2.0 0.00 0.02 0.02 62 1006.4
20260509232702 90 122 0.0 2.0 0.00 0.02 0.02 58 1006.4
20260509231936 91 159 0.0 0.0 0.00 0.02 0.02 58 1006.1
20260509231429 91 137 0.0 0.0 0.00 0.02 0.02 58 1006.1
20260509230926 91 122 0.0 0.0 0.00 0.02 0.02 59 1006.1
20260509230420 92 121 0.0 1.0 0.00 0.02 0.02 60 1006.1
20260509225915 92 111 0.0 1.0 0.00 0.02 0.02 57 1006.1
20260509225409 92 120 0.0 0.0 0.00 0.02 0.02 58 1005.8
20260509224908 93 110 0.0 0.0 0.00 0.02 0.02 58 1005.8
20260509224401 93 131 0.0 1.0 0.00 0.02 0.02 57 1005.8
20260509224123 94 103 0.0 2.0 0.00 0.02 0.02 57 1005.8
20260509223348 92 123 0.0 2.0 0.00 0.02 0.02 58 1005.8
20260509222840 93 95 0.0 0.0 0.00 0.02 0.02 57 1005.8
20260509222333 93 165 0.0 1.0 0.00 0.02 0.02 56 1005.8
20260509221826 94 119 0.0 1.0 0.00 0.02 0.02 57 1005.8
20260509221320 93 133 0.0 1.0 0.00 0.02 0.02 57 1005.8
20260509221039 95 96 0.0 3.0 0.00 0.02 0.02 55 1005.8
20260509220312 94 103 0.0 3.0 0.00 0.02 0.02 56 1005.8
20260509215805 94 108 0.0 2.0 0.00 0.02 0.02 55 1005.8
20260509215300 95 168 0.0 2.0 0.00 0.02 0.02 55 1005.8
20260509214753 94 167 0.0 3.0 0.00 0.02 0.02 56 1005.8
20260509214244 94 137 0.0 3.0 0.00 0.02 0.02 55 1005.8
20260509213736 95 159 0.0 2.0 0.00 0.02 0.02 55 1005.8
20260509212725 94 141 0.0 2.0 0.00 0.02 0.02 55 1005.8
20260509212219 94 115 1.0 1.0 0.00 0.02 0.02 57 1005.8
20260509211712 94 98 0.0 3.0 0.00 0.02 0.02 57 1005.8
20260509211424 93 170 0.0 3.0 0.00 0.02 0.02 58 1006.1
20260509210701 94 332 1.0 2.0 0.00 0.02 0.02 57 1006.1
20260509210156 93 137 0.0 2.0 0.00 0.02 0.02 56 1006.1
20260509205648 94 60 0.0 2.0 0.00 0.02 0.02 57 1006.4
20260509205142 94 143 0.0 2.0 0.00 0.02 0.02 59 1006.4
20260509204856 93 144 1.0 2.0 0.00 0.02 0.02 59 1006.4
20260509204126 94 130 0.0 1.0 0.00 0.02 0.02 58 1006.4
20260509203619 94 132 0.0 2.0 0.00 0.02 0.02 56 1006.4
20260509203113 94 140 0.0 2.0 0.00 0.02 0.02 56 1006.4
20260509202609 92 110 0.0 4.0 0.00 0.02 0.02 60 1006.4
20260509202101 93 101 0.0 4.0 0.00 0.02 0.02 58 1006.4
20260509201555 92 108 0.0 2.0 0.00 0.02 0.02 59 1006.8
20260509201048 92 133 0.0 2.0 0.00 0.02 0.02 58 1006.8
20260509200545 92 91 1.0 2.0 0.00 0.02 0.02 60 1006.8
20260509200038 93 111 1.0 2.0 0.00 0.02 0.02 60 1006.8
20260509195531 95 132 0.0 1.0 0.00 0.02 0.02 58 1006.8
20260509195024 94 127 0.0 1.0 0.00 0.02 0.02 60 1006.8
20260509194522 93 219 0.0 2.0 0.00 0.03 0.02 59 1007.1
20260509194016 93 153 1.0 2.0 0.00 0.03 0.02 58 1006.8
20260509193509 94 52 1.0 2.0 0.00 0.03 0.02 57 1007.1
20260509193003 94 103 0.0 1.0 0.00 0.03 0.02 56 1007.1
20260509192457 94 142 0.0 3.0 0.00 0.03 0.02 55 1007.1
20260509191959 93 12 0.0 3.0 0.00 0.04 0.02 57 1007.1
20260509191450 92 131 0.0 2.0 0.00 0.04 0.02 58 1007.1
20260509190941 91 150 0.0 2.0 0.00 0.04 0.02 59 1007.1
20260509190437 90 105 0.0 3.0 0.00 0.04 0.02 61 1007.1
20260509185934 90 96 0.0 3.0 0.00 0.04 0.02 60 1007.5
20260509185649 90 244 0.0 2.0 0.00 0.04 0.02 63 1007.5
20260509185140 90 120 0.0 2.0 0.00 0.04 0.02 66 1007.5
20260509183910 90 122 0.0 1.0 0.00 0.04 0.02 65 1007.5
20260509183401 89 119 0.0 1.0 0.00 0.04 0.02 66 1007.5
20260509183122 89 151 0.0 1.0 0.00 0.04 0.02 64 1007.5
20260509182349 89 109 0.0 4.0 0.00 0.04 0.02 65 1007.5
20260509182105 88 119 0.0 4.0 0.00 0.05 0.02 65 1007.8
20260509181339 89 118 0.0 3.0 0.00 0.05 0.02 66 1007.8
20260509180835 89 78 0.0 3.0 0.00 0.06 0.02 65 1008.1
20260509180327 90 99 0.0 3.0 0.00 0.07 0.02 65 1008.1
20260509175819 91 162 0.0 4.0 0.00 0.07 0.02 64 1008.1
20260509175313 89 132 0.0 4.0 0.00 0.07 0.02 66 1008.5
20260509174258 87 114 0.0 6.0 0.00 0.07 0.02 68 1008.1
20260509173246 87 168 2.0 4.0 0.00 0.08 0.02 69 1008.1
20260509172738 88 173 0.0 3.0 0.00 0.08 0.02 68 1008.5
20260509172231 87 186 2.0 3.0 0.00 0.08 0.02 70 1008.5
20260509171955 86 61 0.0 1.0 0.00 0.08 0.02 74 1008.8
20260509171220 86 168 0.0 1.0 0.00 0.10 0.02 74 1008.8
20260509170713 86 226 0.0 3.0 0.00 0.10 0.02 74 1008.8
20260509170203 84 143 0.0 3.0 0.00 0.10 0.02 76 1008.8
20260509165703 85 196 0.0 2.0 0.00 0.10 0.02 75 1008.8
20260509165155 83 174 0.0 1.0 0.00 0.10 0.02 77 1008.8
20260509164647 83 133 0.0 0.0 0.00 0.10 0.02 77 1009.1
20260509164139 83 103 0.0 0.0 0.00 0.10 0.02 78 1009.1
20260509162626 83 118 0.0 0.0 0.00 0.11 0.02 78 1008.8
20260509162340 83 124 0.0 0.0 0.00 0.11 0.02 78 1008.8
20260509161615 82 135 0.0 0.0 0.00 0.11 0.02 79 1008.8
20260509161109 82 122 0.0 0.0 0.00 0.11 0.02 79 1008.8
20260509160602 82 132 0.0 0.0 0.00 0.11 0.02 79 1008.8
20260509160055 82 141 0.0 0.0 0.00 0.11 0.02 79 1008.8
20260509155817 82 148 0.0 0.0 0.00 0.11 0.02 80 1009.1
20260509155044 82 126 0.0 1.0 0.00 0.11 0.02 80 1009.1
20260509154536 82 125 0.0 1.0 0.00 0.11 0.02 81 1008.8
20260509154027 81 142 0.0 0.0 0.00 0.11 0.02 81 1008.8
20260509153526 81 151 0.0 0.0 0.00 0.11 0.02 82 1008.8
20260509153018 81 121 0.0 0.0 0.00 0.11 0.02 82 1008.8
20260509152510 80 114 0.0 0.0 0.00 0.11 0.02 83 1008.8
20260509152002 80 139 0.0 0.0 0.00 0.11 0.02 82 1008.8
20260509151502 80 118 0.0 0.0 0.00 0.11 0.02 85 1008.8
20260509150953 80 125 0.0 0.0 0.00 0.11 0.02 86 1008.8
20260509150709 79 113 0.0 0.0 0.00 0.11 0.02 87 1008.8
20260509145939 79 125 0.0 0.0 0.00 0.11 0.02 87 1008.8
20260509145425 79 127 0.0 0.0 0.00 0.11 0.02 87 1008.5
20260509144411 78 121 0.0 0.0 0.00 0.14 0.02 89 1008.5
20260509143905 78 121 0.0 0.0 0.00 0.14 0.02 89 1008.5
20260509143359 78 126 0.0 0.0 0.00 0.14 0.02 90 1008.1
20260509142855 78 123 0.0 0.0 0.00 0.14 0.02 90 1008.1
20260509142347 78 122 0.0 0.0 0.00 0.14 0.02 91 1008.1
20260509141841 77 117 0.0 0.0 0.00 0.14 0.02 91 1008.1
20260509141332 78 131 0.0 0.0 0.00 0.14 0.02 91 1008.1
20260509140823 77 130 0.0 0.0 0.00 0.14 0.02 91 1007.8
20260509140316 77 137 0.0 1.0 0.00 0.14 0.02 91 1007.8
20260509135810 77 146 0.0 1.0 0.00 0.14 0.02 92 1008.1
20260509135246 77 135 0.0 0.0 0.00 0.14 0.02 92 1007.8
20260509134738 77 135 0.0 0.0 0.00 0.14 0.02 92 1008.1
20260509134231 77 146 0.0 0.0 0.00 0.14 0.02 92 1008.5
20260509133952 77 121 0.0 0.0 0.00 0.14 0.02 93 1008.1
20260509133444 77 149 0.0 0.0 0.00 0.14 0.02 93 1008.8
20260509132931 77 125 0.0 0.0 0.00 0.14 0.02 93 1008.8
20260509132207 76 119 0.0 3.0 0.00 0.14 0.02 93 1009.1
20260509131701 76 137 0.0 3.0 0.00 0.14 0.02 93 1009.1
20260509131159 76 134 0.0 0.0 0.00 0.14 0.02 94 1009.1
20260509130651 76 137 0.0 0.0 0.00 0.14 0.02 94 1008.8
20260509130411 76 137 0.0 0.0 0.00 0.14 0.02 94 1008.8
20260509125638 76 134 0.0 0.0 0.00 0.14 0.02 94 1008.8
20260509125137 76 127 0.0 0.0 0.00 0.14 0.02 94 1008.8
20260509124629 76 138 0.0 0.0 0.00 0.14 0.02 95 1009.1
20260509124122 76 134 0.0 0.0 0.00 0.14 0.02 95 1008.8
20260509123614 76 132 0.0 0.0 0.00 0.14 0.02 95 1008.5
20260509123050 75 123 0.0 0.0 0.00 0.14 0.02 95 1008.8
20260509122543 75 124 0.0 0.0 0.00 0.14 0.02 95 1008.5
20260509122035 75 130 0.0 0.0 0.00 0.14 0.02 95 1008.8
20260509121532 75 134 0.0 0.0 0.00 0.14 0.02 95 1008.8
20260509121026 75 136 0.0 0.0 0.00 0.14 0.02 95 1008.8
20260509120520 75 141 0.0 0.0 0.00 0.14 0.02 95 1008.5
20260509120013 75 123 0.0 0.0 0.00 0.14 0.02 95 1008.5
20260509115726 75 124 0.0 0.0 0.00 0.14 0.02 95 1008.1
20260509114958 75 127 0.0 0.0 0.00 0.14 0.02 95 1008.5
20260509114449 76 137 0.0 0.0 0.00 0.14 0.02 95 1008.5
20260509113942 75 118 0.0 0.0 0.00 0.14 0.02 95 1008.5
20260509113143 75 121 0.0 0.0 0.00 0.14 0.02 95 1008.5
20260509112642 74 119 0.0 0.0 0.00 0.14 0.02 95 1008.5
20260509111909 75 119 0.0 0.0 0.00 0.14 0.02 95 1008.5
20260509111625 74 119 0.0 0.0 0.00 0.14 0.02 95 1008.5
20260509110903 74 111 0.0 0.0 0.00 0.14 0.02 95 1008.5
20260509110358 74 118 0.0 0.0 0.00 0.14 0.02 95 1008.5
20260509105849 74 114 0.0 0.0 0.00 0.14 0.02 95 1008.1
20260509105341 75 122 0.0 0.0 0.00 0.14 0.02 95 1008.1
20260509104840 74 123 0.0 0.0 0.00 0.14 0.02 95 1008.1
20260509104333 74 123 0.0 0.0 0.00 0.14 0.02 95 1007.8
20260509103826 74 122 0.0 0.0 0.00 0.14 0.02 95 1007.8
20260509103319 74 122 0.0 0.0 0.00 0.14 0.02 95 1007.5
20260509102817 74 127 0.0 0.0 0.00 0.14 0.02 95 1008.1
20260509102310 74 128 0.0 0.0 0.00 0.14 0.02 95 1007.8
20260509101804 74 128 0.0 0.0 0.00 0.14 0.02 95 1008.1
20260509101518 74 128 0.0 0.0 0.00 0.14 0.02 95 1007.8
20260509100755 74 127 0.0 0.0 0.00 0.14 0.02 95 1007.8
20260509100518 74 125 0.0 0.0 0.00 0.14 0.02 95 1007.8
20260509095959 74 123 0.0 0.0 0.00 0.14 0.02 95 1007.8
20260509095230 74 123 0.0 0.0 0.00 0.14 0.02 95 1007.5
20260509094730 74 123 0.0 0.0 0.00 0.14 0.02 95 1007.5
20260509094222 74 124 0.0 0.0 0.00 0.14 0.02 95 1007.8
20260509093714 74 118 0.0 0.0 0.00 0.14 0.02 95 1007.5
20260509093425 74 118 0.0 0.0 0.00 0.14 0.02 95 1007.5
20260509092926 74 118 0.0 0.0 0.00 0.14 0.02 94 1007.8
20260509092159 74 118 0.0 0.0 0.00 0.14 0.02 94 1007.8
20260509091649 75 118 0.0 0.0 0.00 0.14 0.02 94 1007.8
20260509091141 75 118 0.0 0.0 0.00 0.14 0.02 94 1007.8
20260509090631 75 118 0.0 0.0 0.00 0.14 0.02 94 1008.1
20260509090123 75 118 0.0 0.0 0.00 0.14 0.02 94 1008.1
20260509085614 75 117 0.0 0.0 0.00 0.14 0.02 94 1008.1
20260509085110 75 113 0.0 0.0 0.00 0.14 0.02 94 1008.1
20260509084820 75 123 0.0 0.0 0.00 0.14 0.02 94 1007.8
20260509084050 75 118 0.0 0.0 0.00 0.14 0.02 94 1007.8
20260509083544 76 117 0.0 0.0 0.00 0.14 0.02 94 1007.5
20260509083036 75 131 0.0 0.0 0.00 0.14 0.02 94 1007.8
20260509082524 75 165 0.0 0.0 0.00 0.14 0.02 94 1007.8
20260509082019 75 124 0.0 0.0 0.00 0.14 0.02 94 1007.8
20260509081510 75 124 0.0 0.0 0.00 0.14 0.02 94 1007.8
20260509081002 75 128 0.0 0.0 0.00 0.14 0.02 94 1007.8
20260509080449 75 137 0.0 0.0 0.00 0.14 0.02 94 1007.8
20260509075944 75 122 0.0 0.0 0.00 0.14 0.02 94 1007.8
20260509075438 75 150 0.0 0.0 0.00 0.14 0.02 94 1007.8
20260509075159 75 132 0.0 1.0 0.00 0.14 0.02 94 1007.8
20260509074422 75 113 0.0 1.0 0.00 0.14 0.02 94 1007.8
20260509073914 75 121 0.0 0.0 0.00 0.14 0.02 94 1007.8
20260509073407 76 107 0.0 0.0 0.00 0.14 0.02 94 1007.8
20260509073121 75 124 0.0 0.0 0.00 0.14 0.02 94 1007.8
20260509072359 76 136 0.0 0.0 0.00 0.14 0.02 94 1008.1
20260509071853 76 121 0.0 0.0 0.00 0.14 0.02 94 1008.1
20260509071343 76 117 0.0 0.0 0.00 0.14 0.02 94 1008.1
20260509071100 75 130 0.0 0.0 0.00 0.14 0.02 94 1008.5
20260509070327 75 123 0.0 0.0 0.00 0.14 0.02 94 1008.1
20260509065818 75 119 0.0 0.0 0.00 0.14 0.02 94 1008.5
20260509065311 75 121 0.0 0.0 0.02 0.14 0.02 94 1008.5
20260509064805 75 121 0.0 0.0 0.02 0.14 0.02 94 1008.1
20260509063756 75 119 0.0 0.0 0.02 0.14 0.02 94 1008.1
20260509063518 75 119 0.0 0.0 0.02 0.14 0.02 94 1008.1
20260509063010 76 118 0.0 0.0 0.02 0.14 0.02 94 1008.1
20260509062239 76 118 0.0 0.0 0.02 0.14 0.02 94 1008.5
20260509061952 75 119 0.0 0.0 0.02 0.14 0.02 94 1008.5
20260509061222 75 120 0.0 0.0 0.02 0.14 0.02 94 1008.5
20260509060939 75 120 0.0 0.0 0.02 0.14 0.02 94 1008.1
20260509060422 75 120 0.0 0.0 0.02 0.14 0.02 93 1008.5
20260509055646 75 120 0.0 0.0 0.02 0.14 0.02 93 1008.5
20260509055139 75 126 0.0 0.0 0.00 0.12 0.00 93 1008.5
20260509054632 75 153 0.0 0.0 0.00 0.12 0.00 93 1008.5
20260509054120 75 119 0.0 0.0 0.00 0.12 0.00 93 1008.5
20260509053611 75 118 0.0 0.0 0.00 0.12 0.00 93 1008.5
20260509053105 75 118 0.0 0.0 0.00 0.12 0.00 93 1008.5
20260509052559 75 119 0.0 0.0 0.00 0.12 0.00 93 1008.8
20260509052308 75 116 0.0 0.0 0.00 0.12 0.00 92 1008.5
20260509051539 75 119 0.0 0.0 0.00 0.12 0.00 92 1008.5
20260509051034 76 118 0.0 0.0 0.00 0.12 0.00 93 1008.5
20260509050744 75 118 0.0 0.0 0.00 0.12 0.00 93 1008.5
20260509050235 75 120 0.0 0.0 0.00 0.12 0.00 93 1008.5
20260509045511 75 120 0.0 0.0 0.00 0.12 0.12 92 1008.5
20260509045003 75 120 0.0 0.0 0.00 0.12 0.12 92 1008.8
20260509044455 75 120 0.0 0.0 0.00 0.12 0.12 92 1008.8
20260509043955 75 117 0.0 0.0 0.00 0.12 0.12 92 1008.8
20260509043445 75 120 0.0 0.0 0.00 0.12 0.12 92 1008.8
20260509042940 75 120 0.0 0.0 0.00 0.12 0.12 92 1008.8
20260509042433 75 120 0.0 0.0 0.00 0.12 0.12 92 1008.8
20260509041933 75 116 0.0 0.0 0.00 0.12 0.12 92 1008.5
20260509041425 75 121 0.0 0.0 0.00 0.12 0.12 92 1008.8
20260509040917 75 119 0.0 0.0 0.00 0.12 0.12 92 1008.8
20260509040410 75 121 0.0 0.0 0.00 0.12 0.12 92 1008.5
20260509035907 74 134 0.0 0.0 0.00 0.12 0.12 92 1008.5
20260509035401 75 133 0.0 0.0 0.00 0.12 0.12 92 1008.1
20260509034855 75 121 0.0 0.0 0.00 0.12 0.12 92 1008.1
20260509034349 75 126 0.0 1.0 0.00 0.12 0.12 92 1008.1
20260509033846 75 117 0.0 1.0 0.00 0.12 0.12 92 1008.1
20260509033340 75 115 0.0 0.0 0.00 0.12 0.12 92 1008.1
20260509032834 75 115 0.0 0.0 0.00 0.12 0.12 92 1008.1